User: anonymous   Login
Location: Bothell
(47.7630°N, 122.2040°W)
Time: 04:22:36
(UTC-08:00)
Language:

Oscar 16 - Orbit

View from above orbital plane
View from above orbital plane
View from above satellite
View from above satellite

Ground track
Ground track

The orbit data is extracted from the following two-line orbital elements,

1 20439U 90005D   15026.43494458  .00000073  00000-0  42858-4 0  2272
2 20439 098.5297 324.8069 0010315 214.0804 284.9401 14.32477854306441
Epoch (UTC): 26 January 2015 10:26:19
Eccentricity: 0.0010315
inclination: 98.5297°
perigee height: 776 km
apogee height: 791 km
right ascension of ascending node: 324.8069°
argument of perigee: 214.0804°
revolutions per day: 14.32477854
mean anomaly at epoch: 284.9401°
orbit number at epoch: 30644

The dashed part of the orbit path shows where the satellite is in the earth's shadow,  

DLR